User: anonymous
Location: Unspecified
(0.0000°N, 0.0000°E)
Time: 00:17:34
(UTC+02:00)
Language:

ARIANE DEB (SPELDA) - Orbit

View from above orbital plane
View from above orbital plane
View from above satellite
View from above satellite

Ground track
Ground track

The orbit data is extracted from the following two-line orbital elements,

1 27402U 02015D   14204.31312606  .00000228  00000-0  56340-3 0   417
2 27402 003.4044 239.8497 7108232 091.8219 349.2270 02.45553152107802
Epoch (UTC): 23 July 2014 07:30:54
Eccentricity: 0.7108232
inclination: 3.4044°
perigee height: 333 km
apogee height: 33326 km
right ascension of ascending node: 239.8497°
argument of perigee: 91.8219°
revolutions per day: 2.45553152
mean anomaly at epoch: 349.2270°
orbit number at epoch: 10780

The dashed part of the orbit path shows where the satellite is in the earth's shadow,  

DLR